This demonstration page uses our WeatherBlox Daily Observations layout. Learn more.

Left ArrowRight Arrow

41.12389, -100.76542

Hourly Observations for December 13, 2016

Temp ( °F °C ) Dew Point ( °F °C ) Humidity (%) Winds ( mph kmh ) Pressure ( in mb ) Visibility ( mi km ) Precip ( " mm )
12:53 am 00:53 Clear 9 -12.8 2 -16.7 73 73 NNW 9 15 30.26 1025 10 16 0.00 0.00
1:53 am 01:53 Cloudy 9 -12.8 1 -17.2 70 70 N 10 17 30.26 1025 10 16 0.00 0.00
2:53 am 02:53 Partly Cloudy 7 -13.9 -2 -18.9 66 66 NNW 8 13 30.27 1025 10 16 0.00 0.00
3:53 am 03:53 Partly Cloudy 5 -15 -2 -18.9 72 72 NW 5 7 30.28 1026 10 16 0.00 0.00
4:53 am 04:53 Clear 1 -17.2 -3 -19.4 83 83 NW 5 7 30.35 1028 10 16 0.00 0.00
5:53 am 05:53 Clear 1 -17.2 -4 -20 79 79 WNW 7 11 30.36 1028 10 16 0.00 0.00
6:53 am 06:53 Clear 1 -17.2 -4 -20 79 79 NW 6 9 30.39 1029 10 16 0.00 0.00
7:53 am 07:53 Clear 1 -17.2 -4 -20 79 79 WNW 3 6 30.42 1030 10 16 0.00 0.00
8:53 am 08:53 Sunny 6 -14.4 0 -17.8 76 76 WNW 5 7 30.40 1029 10 16 0.00 0.00
9:53 am 09:53 Sunny 11 -11.7 2 -16.7 67 67 Calm 30.41 1030 10 16 0.00 0.00
10:53 am 10:53 Sunny 14 -10 3 -16.1 61 61 SSW 6 9 30.40 1030 10 16 0.00 0.00
11:53 am 11:53 Sunny 18 -7.8 4 -15.6 54 54 SW 9 15 30.36 1028 10 16 0.00 0.00
12:53 pm 12:53 Sunny 22 -5.6 3 -16.1 44 44 SW 12 19 30.31 1026 10 16 0.00 0.00
1:53 pm 13:53 Sunny 24 -4.4 2 -16.7 38 38 SW 10 17 30.26 1025 10 16 0.00 0.00
2:53 pm 14:53 Sunny 24 -4.4 3 -16.1 40 40 SW 12 19 30.24 1024 10 16 0.00 0.00
3:53 pm 15:53 Sunny 24 -4.4 3 -16.1 40 40 SSW 10 17 30.23 1024 10 16 0.00 0.00
4:53 pm 16:53 Sunny 24 -4.4 5 -15 44 44 SSW 7 11 30.23 1024 10 16 0.00 0.00
5:53 pm 17:53 Clear 20 -6.7 5 -15 52 52 S 6 9 30.22 1023 10 16 0.00 0.00
6:53 pm 18:53 Cloudy 21 -6.1 5 -15 50 50 S 7 11 30.23 1024 10 16 0.00 0.00
7:53 pm 19:53 Cloudy 21 -6.1 6 -14.4 52 52 S 6 9 30.24 1024 10 16 0.00 0.00
8:53 pm 20:53 Cloudy 21 -6.1 6 -14.4 52 52 S 5 7 30.21 1023 10 16 0.00 0.00
9:53 pm 21:53 Clear 18 -7.8 6 -14.4 59 59 SSE 3 6 30.19 1023 10 16 0.00 0.00
10:53 pm 22:53 Clear 21 -6.1 6 -14.4 52 52 S 6 9 30.16 1021 10 16 0.00 0.00
11:53 pm 23:53 Clear 12 -11.1 4 -15.6 70 70 ENE 6 9 30.20 1023 10 16 0.00 0.00

Powered by AerisWeather